| time (UTC) | temp F | wind direction | speed knots | gust knots | rain 1hr in | rain 24hr in | rain mn in | humidity % | barometer mb |
| 20260505041724 | 59 | 166 | 2.6 | 6.1 | 0.00 | 0.00 | 0.00 | 77 | 1013.8 |
| 20260505041221 | 60 | 182 | 3.5 | 5.2 | 0.00 | 0.00 | 0.00 | 75 | 1013.7 |
| 20260505040718 | 61 | 124 | 2.6 | 6.1 | 0.00 | 0.00 | 0.00 | 74 | 1013.7 |
| 20260505040215 | 61 | 198 | 2.6 | 6.1 | 0.00 | 0.00 | 0.00 | 74 | 1013.5 |
| 20260505035712 | 61 | 204 | 1.7 | 4.3 | 0.00 | 0.00 | 0.00 | 75 | 1013.4 |
| 20260505035208 | 61 | 216 | 1.7 | 7.0 | 0.00 | 0.00 | 0.00 | 74 | 1013.2 |
| 20260505034704 | 61 | 198 | 2.6 | 5.2 | 0.00 | 0.00 | 0.00 | 74 | 1013.0 |
| 20260505034202 | 61 | 147 | 1.7 | 6.1 | 0.00 | 0.00 | 0.00 | 74 | 1013.2 |
| 20260505033658 | 62 | 184 | 5.2 | 6.1 | 0.00 | 0.00 | 0.00 | 73 | 1013.1 |
| 20260505033156 | 62 | 198 | 3.5 | 5.2 | 0.00 | 0.00 | 0.00 | 72 | 1013.2 |
| 20260505032654 | 63 | 161 | 1.7 | 2.6 | 0.00 | 0.00 | 0.00 | 71 | 1012.8 |
| 20260505032155 | 63 | 214 | 3.5 | 5.2 | 0.00 | 0.00 | 0.00 | 71 | 1012.9 |
| 20260505031652 | 63 | 139 | 3.5 | 5.2 | 0.00 | 0.00 | 0.00 | 70 | 1012.8 |
| 20260505031149 | 64 | 201 | 0.9 | 4.3 | 0.00 | 0.00 | 0.00 | 70 | 1012.8 |
| 20260505030646 | 64 | 159 | 2.6 | 2.6 | 0.00 | 0.00 | 0.00 | 70 | 1012.7 |
| 20260505030141 | 64 | 123 | 1.7 | 2.6 | 0.00 | 0.00 | 0.00 | 70 | 1012.7 |
| 20260505025637 | 64 | 162 | 3.5 | 4.3 | 0.00 | 0.00 | 0.00 | 70 | 1012.7 |
| 20260505025136 | 64 | 187 | 2.6 | 4.3 | 0.00 | 0.00 | 0.00 | 69 | 1012.5 |
| 20260505024633 | 65 | 206 | 2.6 | 5.2 | 0.00 | 0.00 | 0.00 | 68 | 1012.7 |
| 20260505024131 | 67 | 189 | 4.3 | 6.1 | 0.00 | 0.00 | 0.00 | 66 | 1012.5 |
| 20260505023628 | 68 | 170 | 2.6 | 4.3 | 0.00 | 0.00 | 0.00 | 64 | 1012.5 |
| 20260505023125 | 68 | 192 | 2.6 | 4.3 | 0.00 | 0.00 | 0.00 | 62 | 1012.3 |
| 20260505022623 | 69 | 187 | 1.7 | 4.3 | 0.00 | 0.00 | 0.00 | 61 | 1012.5 |
| 20260505022119 | 69 | 190 | 2.6 | 4.3 | 0.00 | 0.00 | 0.00 | 61 | 1012.5 |
| 20260505021616 | 69 | 193 | 2.6 | 4.3 | 0.00 | 0.00 | 0.00 | 60 | 1012.2 |
| 20260505021113 | 71 | 157 | 2.6 | 6.1 | 0.00 | 0.00 | 0.00 | 58 | 1012.3 |
| 20260505020608 | 71 | 211 | 2.6 | 2.6 | 0.00 | 0.00 | 0.00 | 57 | 1012.3 |
| 20260505020105 | 72 | 194 | 0.9 | 2.6 | 0.00 | 0.00 | 0.00 | 56 | 1012.3 |
| 20260505015602 | 72 | 182 | 1.7 | 4.3 | 0.00 | 0.00 | 0.00 | 57 | 1012.2 |
| 20260505015059 | 72 | 201 | 5.2 | 6.1 | 0.00 | 0.00 | 0.00 | 56 | 1012.2 |
| 20260505014555 | 73 | 205 | 1.7 | 2.6 | 0.00 | 0.00 | 0.00 | 57 | 1012.1 |
| 20260505014052 | 73 | 248 | 4.3 | 5.2 | 0.00 | 0.00 | 0.00 | 56 | 1012.2 |
| 20260505013549 | 73 | 201 | 1.7 | 1.7 | 0.00 | 0.00 | 0.00 | 57 | 1012.4 |
| 20260505013047 | 73 | 184 | 1.7 | 4.3 | 0.00 | 0.00 | 0.00 | 56 | 1012.5 |
| 20260505012545 | 74 | 207 | 1.7 | 1.7 | 0.00 | 0.00 | 0.00 | 56 | 1012.1 |
| 20260505012042 | 74 | 204 | 3.5 | 6.1 | 0.00 | 0.00 | 0.00 | 54 | 1012.1 |
| 20260505011537 | 75 | 127 | 2.6 | 6.1 | 0.00 | 0.00 | 0.00 | 53 | 1012.3 |
| 20260505011035 | 75 | 180 | 6.1 | 7.0 | 0.00 | 0.00 | 0.00 | 52 | 1012.3 |
| 20260505010530 | 75 | 173 | 4.3 | 6.1 | 0.00 | 0.00 | 0.00 | 52 | 1012.2 |
| 20260505010027 | 76 | 204 | 3.5 | 6.1 | 0.00 | 0.00 | 0.00 | 51 | 1012.3 |
| 20260505005523 | 77 | 220 | 3.5 | 4.3 | 0.00 | 0.00 | 0.00 | 51 | 1012.4 |
| 20260505005021 | 77 | 178 | 1.7 | 1.7 | 0.00 | 0.00 | 0.00 | 51 | 1012.3 |
| 20260505004518 | 77 | 191 | 1.7 | 2.6 | 0.00 | 0.00 | 0.00 | 50 | 1012.3 |
| 20260505004014 | 76 | 180 | 2.6 | 5.2 | 0.00 | 0.00 | 0.00 | 51 | 1012.2 |
| 20260505003512 | 76 | 153 | 3.5 | 5.2 | 0.00 | 0.00 | 0.00 | 51 | 1012.3 |
| 20260505003009 | 77 | 138 | 5.2 | 7.0 | 0.00 | 0.00 | 0.00 | 50 | 1012.3 |
| 20260505002504 | 77 | 184 | 3.5 | 5.2 | 0.00 | 0.00 | 0.00 | 50 | 1012.3 |
| 20260505002003 | 77 | 193 | 2.6 | 5.2 | 0.00 | 0.00 | 0.00 | 49 | 1012.3 |
| 20260505001500 | 77 | 201 | 2.6 | 4.3 | 0.00 | 0.00 | 0.00 | 50 | 1012.3 |
| 20260505000956 | 77 | 214 | 1.7 | 4.3 | 0.00 | 0.00 | 0.00 | 51 | 1012.4 |
| 20260505000455 | 76 | 209 | 2.6 | 4.3 | 0.00 | 0.00 | 0.00 | 52 | 1012.4 |
| 20260504235951 | 76 | 156 | 4.3 | 5.2 | 0.00 | 0.00 | 0.00 | 51 | 1012.4 |
| 20260504235448 | 76 | 191 | 4.3 | 6.1 | 0.00 | 0.00 | 0.00 | 51 | 1012.5 |
| 20260504234945 | 76 | 186 | 3.5 | 5.2 | 0.00 | 0.00 | 0.00 | 51 | 1012.4 |
| 20260504234442 | 76 | 152 | 3.5 | 5.2 | 0.00 | 0.00 | 0.00 | 51 | 1012.5 |
| 20260504233938 | 76 | 137 | 3.5 | 6.1 | 0.00 | 0.00 | 0.00 | 52 | 1012.3 |
| 20260504233434 | 76 | 161 | 1.7 | 4.3 | 0.00 | 0.00 | 0.00 | 52 | 1012.4 |
| 20260504232931 | 75 | 225 | 2.6 | 6.1 | 0.00 | 0.00 | 0.00 | 51 | 1012.5 |
| 20260504232429 | 75 | 179 | 2.6 | 6.1 | 0.00 | 0.00 | 0.00 | 51 | 1012.5 |
| 20260504231926 | 75 | 137 | 3.5 | 5.2 | 0.00 | 0.00 | 0.00 | 51 | 1012.4 |
| 20260504231421 | 76 | 141 | 4.3 | 7.0 | 0.00 | 0.00 | 0.00 | 51 | 1012.4 |
| 20260504230917 | 76 | 186 | 6.1 | 9.6 | 0.00 | 0.00 | 0.00 | 51 | 1012.7 |
| 20260504230415 | 76 | 191 | 3.5 | 7.8 | 0.00 | 0.00 | 0.00 | 50 | 1012.6 |
| 20260504225914 | 75 | 203 | 2.6 | 5.2 | 0.00 | 0.00 | 0.00 | 51 | 1012.7 |
| 20260504225410 | 77 | 239 | 3.5 | 7.8 | 0.00 | 0.00 | 0.00 | 49 | 1012.8 |
| 20260504224908 | 76 | 229 | 2.6 | 4.3 | 0.00 | 0.00 | 0.00 | 50 | 1013.0 |
| 20260504224404 | 76 | 163 | 1.7 | 4.3 | 0.00 | 0.00 | 0.00 | 51 | 1012.7 |
| 20260504223901 | 76 | 183 | 4.3 | 6.1 | 0.00 | 0.00 | 0.00 | 50 | 1013.0 |
| 20260504223357 | 76 | 179 | 3.5 | 6.1 | 0.00 | 0.00 | 0.00 | 50 | 1013.0 |
| 20260504222853 | 77 | 172 | 4.3 | 6.1 | 0.00 | 0.00 | 0.00 | 47 | 1013.0 |
| 20260504222350 | 77 | 195 | 1.7 | 2.6 | 0.00 | 0.00 | 0.00 | 48 | 1013.0 |
| 20260504221849 | 77 | 189 | 2.6 | 4.3 | 0.00 | 0.00 | 0.00 | 47 | 1013.1 |
| 20260504221345 | 77 | 206 | 2.6 | 6.1 | 0.00 | 0.00 | 0.00 | 47 | 1013.1 |
| 20260504220842 | 76 | 179 | 2.6 | 2.6 | 0.00 | 0.00 | 0.00 | 47 | 1013.3 |
| 20260504220339 | 75 | 182 | 3.5 | 5.2 | 0.00 | 0.00 | 0.00 | 48 | 1013.2 |
| 20260504215836 | 76 | 211 | 4.3 | 5.2 | 0.00 | 0.00 | 0.00 | 46 | 1013.3 |
| 20260504215332 | 75 | 250 | 2.6 | 4.3 | 0.00 | 0.00 | 0.00 | 47 | 1013.3 |
| 20260504214828 | 75 | 155 | 1.7 | 5.2 | 0.00 | 0.00 | 0.00 | 47 | 1013.4 |
| 20260504214326 | 75 | 205 | 5.2 | 7.8 | 0.00 | 0.00 | 0.00 | 47 | 1013.3 |
| 20260504213822 | 74 | 226 | 3.5 | 4.3 | 0.00 | 0.00 | 0.00 | 51 | 1013.4 |
| 20260504213318 | 74 | 248 | 3.5 | 4.3 | 0.00 | 0.00 | 0.00 | 50 | 1013.3 |
| 20260504212816 | 75 | 228 | 2.6 | 5.2 | 0.00 | 0.00 | 0.00 | 50 | 1013.6 |
| 20260504212312 | 75 | 187 | 3.5 | 7.0 | 0.00 | 0.00 | 0.00 | 50 | 1013.3 |
| 20260504211810 | 74 | 167 | 3.5 | 4.3 | 0.00 | 0.00 | 0.00 | 51 | 1013.5 |
| 20260504211305 | 74 | 196 | 1.7 | 6.1 | 0.00 | 0.00 | 0.00 | 52 | 1013.6 |
| 20260504210803 | 73 | 170 | 3.5 | 4.3 | 0.00 | 0.00 | 0.00 | 51 | 1013.8 |
| 20260504210300 | 73 | 185 | 4.3 | 6.1 | 0.00 | 0.00 | 0.00 | 53 | 1013.7 |
| 20260504205757 | 72 | 225 | 2.6 | 7.0 | 0.00 | 0.00 | 0.00 | 55 | 1013.5 |
| 20260504205255 | 72 | 220 | 2.6 | 5.2 | 0.00 | 0.00 | 0.00 | 54 | 1013.6 |
| 20260504204753 | 72 | 226 | 4.3 | 7.0 | 0.00 | 0.00 | 0.00 | 54 | 1013.7 |
| 20260504204251 | 72 | 222 | 4.3 | 8.7 | 0.00 | 0.00 | 0.00 | 53 | 1013.7 |
| 20260504203750 | 72 | 227 | 2.6 | 2.6 | 0.00 | 0.00 | 0.00 | 56 | 1013.8 |
| 20260504203247 | 71 | 184 | 3.5 | 7.0 | 0.00 | 0.00 | 0.00 | 55 | 1013.6 |
| 20260504202747 | 71 | 185 | 6.1 | 7.0 | 0.00 | 0.00 | 0.00 | 55 | 1013.8 |
| 20260504202244 | 71 | 186 | 2.6 | 6.1 | 0.00 | 0.00 | 0.00 | 55 | 1013.7 |
| 20260504201741 | 71 | 185 | 4.3 | 8.7 | 0.00 | 0.00 | 0.00 | 55 | 1013.5 |
| 20260504201238 | 71 | 177 | 1.7 | 9.6 | 0.00 | 0.00 | 0.00 | 55 | 1013.7 |
| 20260504200736 | 71 | 215 | 2.6 | 5.2 | 0.00 | 0.00 | 0.00 | 55 | 1013.7 |
| 20260504200231 | 70 | 191 | 2.6 | 5.2 | 0.00 | 0.00 | 0.00 | 56 | 1013.8 |
| 20260504195728 | 70 | 171 | 2.6 | 6.1 | 0.00 | 0.00 | 0.00 | 56 | 1013.8 |
| 20260504195224 | 70 | 174 | 2.6 | 7.0 | 0.00 | 0.00 | 0.00 | 56 | 1013.9 |
| 20260504194722 | 69 | 242 | 2.6 | 7.8 | 0.00 | 0.00 | 0.00 | 57 | 1014.0 |
| 20260504194218 | 69 | 201 | 4.3 | 7.0 | 0.00 | 0.00 | 0.00 | 57 | 1013.8 |
| 20260504193714 | 69 | 202 | 4.3 | 7.8 | 0.00 | 0.00 | 0.00 | 57 | 1013.9 |
| 20260504193212 | 69 | 200 | 6.1 | 8.7 | 0.00 | 0.00 | 0.00 | 56 | 1013.9 |
| 20260504192710 | 69 | 208 | 6.1 | 7.8 | 0.00 | 0.00 | 0.00 | 56 | 1014.1 |
| 20260504192208 | 69 | 176 | 4.3 | 7.8 | 0.00 | 0.00 | 0.00 | 56 | 1014.0 |
| 20260504191706 | 69 | 193 | 5.2 | 7.8 | 0.00 | 0.00 | 0.00 | 56 | 1014.0 |
| 20260504191202 | 68 | 170 | 4.3 | 7.0 | 0.00 | 0.00 | 0.00 | 58 | 1014.1 |
| 20260504190658 | 68 | 162 | 2.6 | 8.7 | 0.00 | 0.00 | 0.00 | 58 | 1014.2 |
| 20260504190154 | 69 | 171 | 7.0 | 7.8 | 0.00 | 0.00 | 0.00 | 57 | 1014.0 |
| 20260504185651 | 68 | 229 | 2.6 | 4.3 | 0.00 | 0.00 | 0.00 | 58 | 1014.2 |
| 20260504185148 | 68 | 202 | 5.2 | 6.1 | 0.00 | 0.00 | 0.00 | 59 | 1014.1 |
| 20260504184644 | 67 | 194 | 4.3 | 7.8 | 0.00 | 0.00 | 0.00 | 59 | 1014.2 |
| 20260504184139 | 66 | 187 | 5.2 | 7.8 | 0.00 | 0.00 | 0.00 | 61 | 1014.1 |
| 20260504183636 | 66 | 191 | 4.3 | 7.8 | 0.00 | 0.00 | 0.00 | 63 | 1014.2 |
| 20260504183133 | 66 | 208 | 3.5 | 6.1 | 0.00 | 0.00 | 0.00 | 62 | 1014.3 |
| 20260504182631 | 66 | 249 | 5.2 | 7.0 | 0.00 | 0.00 | 0.00 | 62 | 1014.3 |
| 20260504182128 | 66 | 228 | 4.3 | 6.1 | 0.00 | 0.00 | 0.00 | 63 | 1014.0 |
| 20260504181626 | 65 | 215 | 2.6 | 6.1 | 0.00 | 0.00 | 0.00 | 64 | 1014.4 |
| 20260504181123 | 66 | 193 | 4.3 | 5.2 | 0.00 | 0.00 | 0.00 | 63 | 1014.3 |
| 20260504180622 | 65 | 188 | 1.7 | 4.3 | 0.00 | 0.00 | 0.00 | 65 | 1014.5 |
| 20260504180121 | 66 | 237 | 4.3 | 7.0 | 0.00 | 0.00 | 0.00 | 63 | 1014.3 |
| 20260504175617 | 66 | 243 | 3.5 | 5.2 | 0.00 | 0.00 | 0.00 | 64 | 1014.5 |
| 20260504175114 | 65 | 174 | 1.7 | 6.1 | 0.00 | 0.00 | 0.00 | 64 | 1014.4 |
| 20260504174612 | 65 | 161 | 1.7 | 5.2 | 0.00 | 0.00 | 0.00 | 65 | 1014.4 |
| 20260504174108 | 64 | 191 | 3.5 | 6.1 | 0.00 | 0.00 | 0.00 | 67 | 1014.3 |
| 20260504173605 | 63 | 168 | 4.3 | 5.2 | 0.00 | 0.00 | 0.00 | 68 | 1014.2 |
| 20260504173103 | 63 | 204 | 4.3 | 7.0 | 0.00 | 0.00 | 0.00 | 66 | 1014.4 |
| 20260504172559 | 63 | 198 | 6.1 | 7.0 | 0.00 | 0.00 | 0.00 | 67 | 1014.3 |
| 20260504172056 | 63 | 211 | 3.5 | 7.0 | 0.00 | 0.00 | 0.00 | 66 | 1014.3 |
| 20260504171552 | 63 | 186 | 4.3 | 7.0 | 0.00 | 0.00 | 0.00 | 66 | 1014.3 |
| 20260504171050 | 63 | 203 | 3.5 | 7.0 | 0.00 | 0.00 | 0.00 | 67 | 1014.4 |
| 20260504170545 | 63 | 211 | 4.3 | 7.0 | 0.00 | 0.00 | 0.00 | 66 | 1014.2 |
| 20260504150929 | 59 | 155 | 0.0 | 0.0 | 0.00 | 0.00 | 0.00 | 78 | 1013.4 |
| 20260504150426 | 58 | 163 | 0.9 | 1.7 | 0.00 | 0.00 | 0.00 | 78 | 1013.7 |
| 20260504140852 | 51 | 151 | 0.0 | 0.0 | 0.00 | 0.00 | 0.00 | 94 | 1013.3 |
| 20260504140349 | 51 | 151 | 0.0 | 0.0 | 0.00 | 0.00 | 0.00 | 94 | 1013.1 |
| 20260504130817 | 50 | 147 | 0.0 | 0.0 | 0.00 | 0.00 | 0.00 | 92 | 1012.6 |
| 20260504130313 | 50 | 147 | 0.0 | 0.0 | 0.00 | 0.00 | 0.00 | 92 | 1012.5 |
| 20260504120237 | 52 | 139 | 0.0 | 0.0 | 0.00 | 0.00 | 0.00 | 90 | 1012.2 |
| 20260504110704 | 52 | 150 | 0.0 | 0.0 | 0.00 | 0.00 | 0.00 | 91 | 1012.5 |
| 20260504110201 | 52 | 147 | 0.0 | 0.0 | 0.00 | 0.00 | 0.00 | 90 | 1012.4 |
| 20260504100125 | 53 | 148 | 0.0 | 0.0 | 0.00 | 0.00 | 0.00 | 86 | 1012.3 |
| 20260504081518 | 56 | 150 | 0.0 | 0.0 | 0.00 | 0.00 | 0.00 | 79 | 1012.1 |
| 20260504081013 | 55 | 150 | 0.0 | 0.0 | 0.00 | 0.00 | 0.00 | 80 | 1012.1 |
| 20260504080510 | 55 | 150 | 0.0 | 0.0 | 0.00 | 0.00 | 0.00 | 80 | 1012.3 |
| 20260504050323 | 61 | 152 | 0.0 | 0.0 | 0.00 | 0.00 | 0.00 | 72 | 1012.3 |
| 20260504045820 | 61 | 152 | 0.0 | 0.0 | 0.00 | 0.00 | 0.00 | 71 | 1012.0 |